Flag for Norway Weather past 2 weeks in Stavanger, Norway

Now
54 °F

Partly sunny.


Feels Like: 52 °F
Forecast: 50 / 55 °F
Wind: 6 mph from Southeast

Location: Stavanger / Sola

Current Time: Sep 23, 2014 at 1:20:33 PM

Latest Report: Sep 23, 2014 at 12:50 PM


Visibility: N/A

Pressure: 29.95 "Hg

Humidity: 77%

Dew point: 46 °F

Location of StavangerLocation

Historic Weather in Stavanger — Graph

°F

Stavanger temperature yesterday

Maximum temperature yesterday: 57 °F (at 1:20 PM)
Minimum temperature yesterday: 45 °F (at 11:50 PM)
Average temperature yesterday: 52 °F

Past Weeks' High & Low Weather Summary

 TemperatureHumidityPressure
High73 °F (Sep 16, 4:20 PM)100% (Sep 11, 3:50 AM)30.45 "Hg (Sep 11, 3:50 AM)
Low43 °F (Sep 23, 1:50 AM)31% (Sep 16, 4:50 PM)29.83 "Hg (Sep 8, 6:20 PM)
Average58 °F76%30.15 "Hg
* Reported Sep 8 11:20 AM — Sep 23 11:20 AM, Stavanger, Weather by CustomWeather, © 2014

Note: Actual official high and low records may vary slightly from our data, if they occured in-between our weather recording intervals... More about our weather records

Advertising

Stavanger weather history for previous 24 hours

 ConditionsComfort  
Time TempWeatherWind HumidityBarometerVisibility
11:20 AM
Sep 23
52 °FPartly sunny.3 mph82%29.95 "HgN/A
10:50 AM52 °FPartly sunny.6 mph82%29.95 "HgN/A
10:20 AM52 °FPartly sunny.7 mph82%29.98 "HgN/A
9:50 AM50 °FPartly sunny.7 mph82%29.98 "HgN/A
9:20 AM48 °FPartly sunny.7 mph87%29.98 "HgN/A
8:50 AM48 °FSprinkles. Partly sunny.3 mph87%29.98 "HgN/A
8:20 AM48 °FPartly cloudy.5 mph87%29.98 "HgN/A
7:50 AM48 °FPartly cloudy.5 mph82%29.98 "HgN/A
7:20 AM48 °FPassing clouds.6 mph82%30.01 "HgN/A
6:50 AM46 °FPartly cloudy.5 mph87%30.01 "HgN/A
6:20 AM46 °FPartly cloudy.5 mph87%30.01 "HgN/A
5:50 AM46 °FPartly cloudy.8 mph87%30.01 "HgN/A
4:50 AM45 °FPassing clouds.8 mph87%30.01 "HgN/A
3:50 AM43 °FPassing clouds.5 mph87%30.04 "HgN/A
2:50 AM43 °FPassing clouds.3 mph87%30.04 "HgN/A
1:50 AM43 °FPassing clouds.3 mph87%30.04 "HgN/A
1:20 AM45 °FClear.5 mph81%30.04 "Hg10 mi
12:50 AM45 °FClear.2 mph81%30.07 "Hg10 mi
12:20 AM46 °FClear.2 mph82%30.07 "Hg10 mi
11:50 PM
Sep 22
45 °FClear.2 mph87%30.07 "Hg10 mi
11:20 PM46 °FClear.2 mph82%30.07 "Hg10 mi
10:50 PM46 °FClear.2 mph82%30.07 "Hg10 mi
10:20 PM48 °FClear.1 mph76%30.07 "Hg10 mi
9:50 PM50 °FClear.2 mph71%30.07 "Hg10 mi
9:20 PM52 °FPassing clouds.5 mph67%30.07 "HgN/A
8:50 PM54 °FPassing clouds.6 mph63%30.07 "HgN/A
8:20 PM54 °FPartly sunny.6 mph63%30.07 "HgN/A
7:50 PM54 °FPartly sunny.5 mph63%30.07 "HgN/A
7:20 PM54 °FPartly sunny.6 mph63%30.07 "HgN/A
6:50 PM54 °FPartly sunny.6 mph63%30.07 "HgN/A
6:20 PM55 °FPartly sunny.8 mph59%30.07 "HgN/A
5:50 PM55 °FSunny.9 mph59%30.07 "Hg10 mi
5:20 PM55 °FSunny.12 mph59%30.07 "Hg10 mi
4:50 PM55 °FSunny.10 mph59%30.07 "Hg10 mi
4:20 PM57 °FSunny.12 mph55%30.07 "Hg10 mi
3:50 PM57 °FPassing clouds.9 mph51%30.07 "HgN/A
3:20 PM57 °FPassing clouds.8 mph55%30.07 "HgN/A
2:50 PM57 °FSunny.9 mph55%30.07 "Hg10 mi
2:20 PM57 °FPassing clouds.10 mph59%30.09 "HgN/A
1:50 PM57 °FPassing clouds.6 mph51%30.09 "HgN/A
1:20 PM57 °FSunny.7 mph51%30.07 "Hg10 mi
Weather by CustomWeather, © 2014

See weather overviewHow to use our weather pages